ARIANE 6 R/B, 100531

Orbit data source: Space-Track

ARIANE 6 R/B, 100531 is space debris in HEO originally from a launch on Thu, 27 Aug 2026 UTC launched from the French Guiana (FRGUI). Debris objects in space refer to the collection of defunct objects orbiting the Earth. Examples of debris include non-operational satellites, rocket bodies, and fragments generated from explosions, collisions, or faulty payload assembly.

Loading next visibility...
Identifier
100531, 2026-198B
Orbit
HEO
Country
Flag of ESAESA
Related business
Manufacturer
ARIB
Mission
Spacecraft
Bus & Motor
ULPM, VINCI
Mass
6,000 kg wet, 6,000 kg dry
Launch date (UTC)
2026-08-27 (2 weeks ago)
Launch vehicle
Unknown
Launch site
French Guiana (FRGUI)
Object type
Payload
Rocket body
Debris
Shape & HBR
CYL, 6.0 m
Radar Cross Section
RCS unknown

Expand to show TLE details & history
Last TLE update: 13 hours ago

TLE from 13 hours ago
0 ARIANE 6 R/B
1 A0531U 26198B   26251.23101515  .00046628  56094-7  72688-3 0  9990
2 A0531   6.3858  93.6451 7285564 188.8140 142.6975  2.32561134   254
Epoch: 2026-09-08T05:32Z
TLE epoch observation values (Epoch: 2026-09-08T05:32:39.708Z)
Latitude
0.00001°
Longitude
23.27718°
Altitude
33,937.025 km
Speed
1.792 km/s
True Right ascension
06h 14m 58s
True Declination
0° 00' 00"
Sunlit
Object was in daylight at epoch
Visualization orbit readout
Latitude
Unknown
Longitude
Unknown
Altitude
Unknown
Speed
Unknown
Apparent Right ascension
Unknown
Apparent Declination
Unknown
Sunlit
N/A
Visualization observer readout
Local Sidereal Time
10:53:30
Azimuth
Unknown
Elevation
Unknown
Doppler factor
Unknown
Orbital elements
Apogee altitude
35,228.419 km
Perigee altitude
155.542 km
Semi-major axis
24,070.118 km
Eccentricity
0.72856
Inclination
6.3858°
RAAN
93.6451°
Arg. of periapsis
188.814°
True anomaly
171.27224°
Mean anomaly
142.6975°
Eccentric anomaly
158.19975°
Mean motion
0.5812 °/min
Orbital period
619.41 mins
BSTAR
0.00072688
Loading maneuver chart data...
Computing Atmospheric mass density...
Loading historical data...
Loading historical data...
Loading historical data...
Loading historical data...
Loading historical data...
Loading historical data...
Loading historical data...
Other satellites on launch #198 in the year 2026 (2026-08-27 UTC)

Documentation

Showing up to 5 results
|